Regional Weather Roundup
Issued by NWS

Home | Current Version | Previous Version | Text Only | Print | Product List | Glossary Off
Versions: 1 2 3 4 5 6 7 8 9 10 11 12 13 14 15 16 17 18 19 20 21 22 23 24 25 26 27 28 29 30 31 32 33 34 35 36 37 38 39 40 41 42 43 44 45 46 47 48 49 50

000
ASUS44 KMEG 230510
RWRTN
TENNESSEE HOURLY STATE WEATHER ROUNDUP
NATIONAL WEATHER SERVICE MEMPHIS TN
1200 AM CDT SAT AUG 23 2014

TNZ002-004-019-021-049-052-054-088>092-230600-
WEST TENNESSEE

CITY           SKY/WX    TMP DP  RH WIND       PRES   REMARKS
MEMPHIS INTL   CLEAR     82  73  74 SW6       30.01S
NWS MEMPHIS      N/A     80 N/A N/A MISG        N/A
JACKSON        CLEAR     78  74  87 S6        30.01S
DYERSBURG      CLEAR     81  66  61 CALM      30.00S
UNION CITY     CLEAR     79  75  89 CALM      29.98F
PARIS          CLEAR     72  70  94 CALM      30.00F
HUNTINGDON     CLEAR     75  74  97 CALM      30.00F
LEXINGTON      CLEAR     73  73 100 CALM      30.01S
SAVANNAH       CLEAR     75  75 100 CALM      30.03S
$$

TNZ008-025-027-028-033-062-065-066-230600-
NORTH MIDDLE TENNESSEE

CITY           SKY/WX    TMP DP  RH WIND       PRES   REMARKS
NASHVILLE      CLEAR     78  74  87 CALM      30.02F
DICKSON        CLEAR     75  73  94 CALM      30.02F
PORTLAND       CLOUDY    75  72  88 S3        30.02F
CLARKSVILLE    PTCLDY    76  73  91 S3        30.00F
LEBANON        CLEAR     75  72  91 CALM      30.01F
SMYRNA         CLEAR     77  73  87 CALM      30.03F
MURFREESBORO   CLEAR     78  72  82 CALM      30.02F
COOKEVILLE     CLEAR     73  73 100 CALM      30.05S
LIVINGSTON     PTCLDY    76  71  84 W3        30.06F
GALLATIN       CLEAR     76  75  96 CALM      30.03F
CROSSVILLE     PTCLDY    72  69  90 W3        30.10F
$$

TNZ061-075-076-078-094-096-097-230600-
SOUTH MIDDLE TENNESSEE

CITY           SKY/WX    TMP DP  RH WIND       PRES   REMARKS
LEWISBURG      CLEAR     74  70  87 CALM      30.03F
FAYETTEVILLE   CLEAR     75  68  78 CALM      30.05S
TULLAHOMA      CLEAR     73  70  88 CALM      30.07S
WINCHESTER     CLEAR     73  72  94 CALM      30.06S
MCMINNVILLE    MOCLDY    73  73 100 CALM      30.05F VSB 3/4
COLUMBIA       CLEAR     75  75 100 CALM      30.01F
SHELBYVILLE    CLEAR     73  73 100 E3        30.05S
$$

TNZ017-018-042-046-047-230600-
NORTHEAST TENNESSEE

CITY           SKY/WX    TMP DP  RH WIND       PRES   REMARKS
TRI CITIES     RAIN      71  67  87 W3        30.08F FOG
ELIZABETHTON   LGT RAIN  68  66  94 S3        30.09F
$$

TNZ012-013-036-069-073-074-230600-
CENTRAL EAST TENNESSEE

CITY           SKY/WX    TMP DP  RH WIND       PRES   REMARKS
KNOXVILLE      MOCLDY    75  71  87 CALM      30.03F
OAK RIDGE      MOCLDY    76  73  91 CALM      30.05F
GATLINBURG     CLEAR     73  70  88 CALM      30.04S
MORRISTOWN     CLEAR     73  72  94 SW5       30.06F
$$

TNZ083-085-099-230600-
SOUTHEAST TENNESSEE

CITY           SKY/WX    TMP DP  RH WIND       PRES   REMARKS
CHATTANOOGA    CLEAR     78  73  84 CALM      30.04S
$$

SKY/WX REPORTED AS FAIR MEANS FEW OR NO CLOUDS BELOW
12 THOUSAND FEET.



USA.gov is the U.S. government's official web portal to all federal, state and local government web resources and services.